Date,TemperatureHighF,TemperatureAvgF,TemperatureLowF,DewpointHighF,DewpointAvgF,DewpointLowF,HumidityHigh,HumidityAvg,HumidityLow,PressureMaxIn,PressureMinIn,WindSpeedMaxMPH,WindSpeedAvgMPH,GustSpeedMaxMPH,PrecipitationSumIn
2013-3-1,39,36,32,32,25,18,80,65,51,29.76,29.57,7,2,20,0.03
2013-3-2,43,36,33,38,29,20,86,75,58,29.77,29.68,6,1,13,0.00
2013-3-3,42,36,33,37,29,24,85,76,67,29.71,29.64,6,1,13,0.00
2013-3-4,42,34,31,33,27,22,91,76,65,29.76,29.63,9,5,21,0.03
2013-3-5,45,36,31,38,29,25,86,76,57,30.12,29.76,8,3,18,0.03
2013-3-6,43,37,33,37,28,23,81,69,56,30.16,30.02,12,7,28,0.03
2013-3-7,37,36,34,27,22,19,67,56,51,30.02,29.92,14,8,32,1.26
2013-3-8,38,35,33,31,20,13,76,56,37,30.14,29.90,12,7,36,0.98
2013-3-9,40,36,33,32,27,22,76,70,61,30.41,30.13,10,4,32,0.00
2013-3-10,43,37,33,37,29,22,82,72,62,30.50,30.39,5,2,13,0.00
2013-3-11,50,40,33,45,29,19,87,65,41,30.44,30.30,8,3,14,0.00
2013-3-12,51,47,41,30,18,7,46,32,17,30.30,29.88,14,8,24,0.24
2013-3-13,52,45,37,42,20,-12,88,47,10,29.91,29.80,13,3,23,0.65
2013-3-14,41,33,25,32,24,15,85,71,51,29.96,29.83,12,4,20,0.00
2013-3-15,39,29,21,33,19,10,91,67,34,30.06,29.89,10,6,24,0.00
2013-3-16,39,33,27,33,23,14,93,68,42,30.26,29.92,12,3,24,0.00
2013-3-17,39,31,23,30,18,9,93,62,37,30.77,30.25,9,2,24,0.00
2013-3-18,38,28,21,27,18,8,93,65,42,30.97,30.77,8,3,13,0.00
2013-3-19,41,35,28,9,-16,-31,43,12,4,30.84,30.12,15,10,27,0.85
2013-3-20,41,32,27,32,12,-50,90,54,2,30.58,30.25,10,5,24,0.00
2013-3-21,44,33,26,35,15,-29,86,51,6,30.59,30.43,7,1,16,0.01
2013-3-22,37,32,28,28,-22,-61,72,29,1,30.90,30.43,10,2,18,0.44
2013-3-23,44,35,29,32,25,18,82,67,46,31.20,30.87,10,6,20,0.04
2013-3-24,46,35,27,33,28,17,93,76,52,31.33,29.83,8,3,20,0.00
2013-3-25,49,36,27,39,22,-14,88,61,9,29.84,29.54,9,4,20,0.00
2013-3-26,46,38,33,35,28,14,90,69,44,29.86,29.54,10,4,22,0.05
2013-3-27,52,41,32,40,29,21,90,65,38,29.93,29.83,7,2,17,0.00
2013-3-28,49,41,36,42,25,-8,87,57,12,30.11,29.91,12,2,20,0.10
2013-3-29,55,44,33,45,33,5,87,66,23,30.14,30.07,8,1,12,0.00
2013-3-30,54,43,34,46,31,19,88,62,45,30.20,30.11,7,1,12,0.00
2013-3-31,59,44,29,42,25,-13,89,50,8,30.24,29.90,14,3,21,0.02